User: anonymous   Login
Location: Lugrin
(46.4033°N, 6.6674°E)
Time: 07:36:27
(UTC+00:00)
Language:

Cosmos 1626 - Orbit

View from above orbital plane
View from above orbital plane
View from above satellite
View from above satellite

Ground track
Ground track

The orbit data is extracted from the following two-line orbital elements,

1 15494U 85009A   20336.47552435 +.00002543 +00000-0 +10232-3 0  9999
2 15494 082.4812 063.7251 0001250 348.6200 011.5009 15.24448431960822
Epoch (UTC): 01 December 2020 11:24:45
Eccentricity: 0.0001250
inclination: 82.4812°
perigee height: 491 km
apogee height: 493 km
right ascension of ascending node: 63.7251°
argument of perigee: 348.6200°
revolutions per day: 15.24448431
mean anomaly at epoch: 11.5009°
orbit number at epoch: 96082

The dashed part of the orbit path shows where the satellite is in the earth's shadow,  

DLR